SAMPLE_ID,CRUISE,STATION,TYPE,time,latitude,longitude,depth,DOC_FINAL_uM,DOC_SD,FLAG
unitless,unitless,unitless,unitless,UTC,degrees_north,degrees_east,m,Micromol Carbon,Micromol Carbon,unitless
1,MCR CORAL DOM,55,B,2016-07-26T11:20:00Z,-17.5438892,-149.7747479,1.0,79.45,3.21,1
3,MCR CORAL DOM,54,B,2016-07-26T11:31:00Z,-17.54048841,-149.773951,1.0,73.65,0.96,1
5,MCR CORAL DOM,56,B,2016-07-26T11:46:00Z,-17.54065563,-149.7703816,1.0,72.31,0.29,1
7,MCR CORAL DOM,63,B,2016-07-26T12:05:00Z,-17.53573436,-149.7629378,1.0,71.35,2.0,1
9,MCR CORAL DOM,61,B,2016-07-26T12:26:00Z,-17.5352866,-149.7726642,1.0,70.96,0.22,1
11,MCR CORAL DOM,64,B,2016-07-26T12:40:00Z,-17.52938876,-149.7673331,1.0,69.16,0.05,1
13,MCR CORAL DOM,66,B,2016-07-26T12:54:00Z,-17.52840162,-149.773503,1.0,70.86,1.46,1
15,MCR CORAL DOM,67,B,2016-07-26T13:05:00Z,-17.5226684,-149.7793687,1.0,71.79,1.17,1
17,MCR CORAL DOM,68,B,2016-07-26T13:16:00Z,-17.52006574,-149.7738316,1.0,67.75,0.84,1
19,MCR CORAL DOM,69,B,2016-07-26T13:28:00Z,-17.51597897,-149.7687791,1.0,71.08,0.12,1
21,MCR CORAL DOM,76,B,2016-07-26T14:04:00Z,-17.50094125,-149.7627215,1.0,71.02,0.09,1
23,MCR CORAL DOM,75,B,2016-07-26T14:19:00Z,-17.50326782,-149.7645343,1.0,70.17,1.52,1
25,MCR CORAL DOM,70,B,2016-07-26T14:28:00Z,-17.51029755,-149.7665881,1.0,68.46,0.18,1
27,MCR CORAL DOM,72,B,2016-07-26T14:41:00Z,-17.52172509,-149.7643641,1.0,70.87,0.91,1
29,MCR CORAL DOM,R2,B,2016-07-27T10:05:00Z,-17.59042955,-149.8513141,1.0,70.99,0.67,1
31,MCR CORAL DOM,R3,B,2016-07-27T10:40:00Z,-17.59052703,-149.861271,1.0,68.16,0.56,1
33,MCR CORAL DOM,R5,B,2016-07-27T11:30:00Z,-17.58509698,-149.8672942,1.0,65.13,0.51,1
35,MCR CORAL DOM,R9,B,2016-07-27T12:30:00Z,-17.57452698,-149.8740018,1.0,69.02,1.93,4
37,MCR CORAL DOM,R82,B,2016-07-27T12:50:00Z,-17.56890935,-149.8785377,1.0,64.97,1.32,1
39,MCR CORAL DOM,R81,B,2016-07-27T13:05:00Z,-17.56509583,-149.8775593,1.0,63.97,1.37,1
41,MCR CORAL DOM,R83,B,2016-07-27T13:45:00Z,-17.56706047,-149.8830503,1.0,61.78,0.0,1
42,MCR CORAL DOM,R84,B,2016-07-27T14:10:00Z,-17.56043784,-149.8865255,1.0,63.87,1.11,1
44,MCR CORAL DOM,R86,B,2016-07-27T14:25:00Z,-17.55850204,-149.8826298,1.0,63.47,1.71,4
46,MCR CORAL DOM,R87,B,2016-07-27T15:00:00Z,-17.55897637,-149.8788434,1.0,65.13,1.07,1
48,MCR CORAL DOM,R90,B,2016-07-27T03:35:00Z,-17.55573928,-149.8879232,1.0,64.95,0.0,1
49,MCR CORAL DOM,161,B,2016-07-27T09:47:00Z,-17.47370895,-149.7768527,1.0,66.82,0.54,1
51,MCR CORAL DOM,166,B,2016-07-27T10:36:00Z,-17.47499012,-149.7867232,1.0,70.79,4.54,4
53,MCR CORAL DOM,168,B,2016-07-27T11:15:00Z,-17.47187021,-149.786553,1.0,70.44,0.49,1
55,MCR CORAL DOM,169,B,2016-07-27T11:50:00Z,-17.47434254,-149.7937432,1.0,70.04,0.0,1
56,MCR CORAL DOM,164,B,2016-07-27T12:15:00Z,-17.47880909,-149.790986,1.0,67.68,0.63,1
58,MCR CORAL DOM,170,B,2016-07-27T12:46:00Z,-17.47682031,-149.7950122,1.0,64.82,0.12,1
60,MCR CORAL DOM,173,B,2016-07-27T14:19:00Z,-17.4760501,-149.7973693,1.0,67.84,0.4,1
62,MCR CORAL DOM,185,B,2016-07-27T14:51:00Z,-17.47711502,-149.8025034,1.0,68.76,1.58,1
64,MCR CORAL DOM,187,B,2016-07-27T15:18:00Z,-17.47899399,-149.8063396,1.0,71.57,0.0,1
65,MCR CORAL DOM,175,B,2016-07-27T15:37:00Z,-17.48082167,-149.8048369,1.0,66.62,0.95,1
67,MCR CORAL DOM,182,B,2016-07-27T15:57:00Z,-17.47831405,-149.8135389,1.0,72.34,1.15,1
69,MCR CORAL DOM,183,B,2016-07-27T16:16:00Z,-17.48034675,-149.8136512,1.0,72.62,2.68,4
71,MCR CORAL DOM,179,B,2016-07-27T16:34:00Z,-17.48120195,-149.8175988,1.0,67.5,0.0,1
72,MCR CORAL DOM,176,B,2016-07-27T16:52:00Z,-17.48256359,-149.8138506,1.0,69.33,0.13,1
74,MCR CORAL DOM,177,B,2016-07-27T17:10:00Z,-17.48383638,-149.8168138,1.0,66.4,0.35,1
76,MCR CORAL DOM,96,B,2016-08-04T10:13:00Z,-17.53815631,-149.9044886,1.0,61.33,0.08,1
78,MCR CORAL DOM,94,B,2016-08-04T10:34:00Z,-17.54780925,-149.8949618,1.0,68.32,0.95,1
80,MCR CORAL DOM,93,B,2016-08-04T11:10:00Z,-17.5463777,-149.8911702,1.0,66.38,0.03,1
82,MCR CORAL DOM,98,B,2016-08-04T11:30:00Z,-17.54181552,-149.8985127,1.0,64.79,0.28,1
84,MCR CORAL DOM,100,B,2016-08-04T11:58:00Z,-17.53432151,-149.9101318,1.0,68.35,0.0,1
85,MCR CORAL DOM,99,B,2016-08-04T12:54:00Z,-17.53222134,-149.9058889,1.0,65.59,0.6,1
87,MCR CORAL DOM,103,B,2016-08-04T13:15:00Z,-17.52734936,-149.9140272,1.0,66.26,0.03,1
89,MCR CORAL DOM,104,B,2016-08-04T13:35:00Z,-17.52568094,-149.9107429,1.0,67.21,0.62,1
91,MCR CORAL DOM,106,B,2016-08-04T14:00:00Z,-17.51944682,-149.9170567,1.0,67.75,0.5,1
93,MCR CORAL DOM,107,B,2016-08-04T14:23:00Z,-17.51885715,-149.9132726,1.0,65.41,0.0,1
94,MCR CORAL DOM,109,B,2016-08-04T14:47:00Z,-17.51138762,-149.919454,1.0,67.24,1.38,1
96,MCR CORAL DOM,110,B,2016-08-04T15:07:00Z,-17.51055999,-149.9159157,1.0,65.7,1.17,1
98,MCR CORAL DOM,112,B,2016-08-04T15:26:00Z,-17.50348139,-149.920637,1.0,68.78,0.7,1
100,MCR CORAL DOM,113,B,2016-08-04T15:49:00Z,-17.50287202,-149.91747,1.0,66.66,0.0,1
102,MCR CORAL DOM,115,B,2016-08-04T16:03:00Z,-17.49504173,-149.9197109,1.0,67.05,1.72,4
104,MCR CORAL DOM,116,B,2016-08-04T16:16:00Z,-17.49474971,-149.9146039,1.0,65.71,0.0,1
105,MCR CORAL DOM,130,B,2016-08-04T10:01:00Z,-17.48467089,-149.8742172,1.0,66.58,0.37,1
107,MCR CORAL DOM,132,B,2016-08-04T10:28:00Z,-17.48744111,-149.8709693,1.0,63.5,0.17,1
109,MCR CORAL DOM,131,B,2016-08-04T11:10:00Z,-17.48809573,-149.8667564,1.0,64.74,1.02,1
111,MCR CORAL DOM,149,B,2016-08-04T12:01:00Z,-17.48650493,-149.8520296,1.0,67.41,1.71,4
113,MCR CORAL DOM,148,B,2016-08-04T12:36:00Z,-17.48386731,-149.8490207,1.0,63.61,0.0,1
114,MCR CORAL DOM,147,B,2016-08-04T13:45:00Z,-17.48168911,-149.8498651,1.0,66.67,0.33,1
116,MCR CORAL DOM,152,B,2016-08-04T14:11:00Z,-17.48009529,-149.8422762,1.0,67.11,0.32,1
118,MCR CORAL DOM,151,B,2016-08-04T14:40:00Z,-17.47821942,-149.8423604,1.0,66.7,0.04,1
120,MCR CORAL DOM,153,B,2016-08-04T15:22:00Z,-17.4784169,-149.8339808,1.0,68.55,0.65,1
122,MCR CORAL DOM,6,B,2016-08-06T10:18:00Z,-17.57797027,-149.8731899,1.0,63.95,1.04,1
124,MCR CORAL DOM,91,B,2016-08-06T10:54:00Z,-17.55741642,-149.8905109,1.0,65.01,0.85,1
126,MCR CORAL DOM,92,B,2016-08-06T11:19:00Z,-17.55032935,-149.897047,1.0,62.35,0.52,1
128,MCR CORAL DOM,95,B,2016-08-06T11:45:00Z,-17.54493568,-149.9022286,1.0,64.2,0.85,1
130,MCR CORAL DOM,97,B,2016-08-06T12:50:00Z,-17.54097733,-149.9067632,1.0,70.28,0.0,1
131,MCR CORAL DOM,101,B,2016-08-06T13:13:00Z,-17.53755852,-149.9121106,1.0,65.14,0.01,1
133,MCR CORAL DOM,102,B,2016-08-06T13:40:00Z,-17.5292844,-149.9181631,1.0,65.57,0.1,1
135,MCR CORAL DOM,105,B,2016-08-06T13:58:00Z,-17.52007479,-149.9206248,1.0,67.11,0.07,1
137,MCR CORAL DOM,108,B,2016-08-06T14:16:00Z,-17.51272805,-149.9225916,1.0,66.71,0.27,1
139,MCR CORAL DOM,111,B,2016-08-06T14:40:00Z,-17.50318299,-149.9240371,1.0,65.85,0.0,1
140,MCR CORAL DOM,114,B,2016-08-06T15:09:00Z,-17.4954558,-149.9235728,1.0,66.61,0.67,1
142,MCR CORAL DOM,78,B,2016-08-10T09:35:00Z,-17.50024941,-149.7576461,1.0,71.27,0.13,1
144,MCR CORAL DOM,77,B,2016-08-10T09:56:00Z,-17.50258469,-149.7597522,1.0,66.95,0.48,1
146,MCR CORAL DOM,74,B,2016-08-10T10:24:00Z,-17.50532775,-149.7609331,1.0,68.1,0.92,1
148,MCR CORAL DOM,71,B,2016-08-10T10:49:00Z,-17.51072251,-149.7630267,1.0,65.33,0.08,1
150,MCR CORAL DOM,73,B,2016-08-10T11:15:00Z,-17.51638885,-149.7642064,1.0,65.0,0.0,1
151,MCR CORAL DOM,65,B,2016-08-10T11:45:00Z,-17.52484376,-149.7649524,1.0,66.99,1.64,4
153,MCR CORAL DOM,62,B,2016-08-10T12:09:00Z,-17.53598314,-149.7679931,1.0,65.14,0.51,1
155,MCR CORAL DOM,57,B,2016-08-10T12:34:00Z,-17.54170898,-149.7665665,1.0,69.14,0.53,1
157,MCR CORAL DOM,59,B,2016-08-10T12:57:00Z,-17.54354672,-149.7706065,1.0,70.02,1.19,4
159,MCR CORAL DOM,58,B,2016-08-10T14:00:00Z,-17.54808988,-149.7732428,1.0,69.68,0.0,4
160,MCR CORAL DOM,53,B,2016-08-10T14:23:00Z,-17.54553717,-149.7782538,1.0,68.99,0.61,4
162,MCR CORAL DOM,52,B,2016-08-10T14:43:00Z,-17.54829758,-149.780663,1.0,63.59,1.37,4
164,MCR CORAL DOM,60,B,2016-08-10T15:00:00Z,-17.55227462,-149.7773983,1.0,69.32,0.36,4
166,MCR CORAL DOM,184 C,B,2016-08-11T07:47:00Z,-17.47691201,-149.8066267,1.0,68.15,1.27,4
168,MCR CORAL DOM,181 C,B,2016-08-11T08:26:00Z,-17.47477999,-149.8148865,1.0,67.62,3.89,4
170,MCR CORAL DOM,144 C,B,2016-08-11T09:07:00Z,-17.48895002,-149.8550006,1.0,68.91,0.0,4
171,MCR CORAL DOM,51,B,2016-08-11T09:36:00Z,-17.55479179,-149.7891155,1.0,65.34,0.39,4
173,MCR CORAL DOM,46,B,2016-08-11T10:00:00Z,-17.55798848,-149.7809429,1.0,69.85,0.55,4
175,MCR CORAL DOM,37,B,2016-08-11T10:25:00Z,-17.57349375,-149.7942877,1.0,63.42,0.24,4
177,MCR CORAL DOM,40,B,2016-08-11T10:48:00Z,-17.57566885,-149.7885266,1.0,66.86,1.4,4
179,MCR CORAL DOM,34,B,2016-08-11T11:08:00Z,-17.58067293,-149.7936002,1.0,67.21,0.0,4
180,MCR CORAL DOM,33,B,2016-08-11T11:29:00Z,-17.58718274,-149.7909091,1.0,67.55,0.35,1
182,MCR CORAL DOM,27,B,2016-08-11T11:57:00Z,-17.59423829,-149.7964097,1.0,68.43,0.7,1
184,MCR CORAL DOM,31,B,2016-08-11T12:30:00Z,-17.59795985,-149.8038875,1.0,67.66,1.56,1
186,MCR CORAL DOM,50,B,2016-08-11T13:40:00Z,-17.60194159,-149.8021502,1.0,66.65,0.24,1
188,MCR CORAL DOM,22,B,2016-08-11T14:09:00Z,-17.60326945,-149.810896,1.0,69.6,0.0,1
189,MCR CORAL DOM,28,B,2016-08-11T14:34:00Z,-17.59882126,-149.8193942,1.0,66.27,0.48,1
191,MCR CORAL DOM,48,B,2016-08-11T14:55:00Z,-17.59491873,-149.8171821,1.0,66.6,0.19,1
193,MCR CORAL DOM,30,B,2016-08-11T15:11:00Z,-17.59837987,-149.8107668,1.0,68.45,0.82,1
195,MCR CORAL DOM,25,B,2016-08-11T15:23:00Z,-17.59436904,-149.8067542,1.0,68.14,0.91,1
197,MCR CORAL DOM,32,B,2016-08-11T15:43:00Z,-17.59291001,-149.7998923,1.0,67.78,0.0,1
198,MCR CORAL DOM,45,B,2016-08-12T09:54:00Z,-17.56024699,-149.7891006,1.0,68.8,0.0,1
199,MCR CORAL DOM,44,B,2016-08-12T10:09:00Z,-17.56150126,-149.7854925,1.0,72.0,0.56,1
201,MCR CORAL DOM,43,B,2016-08-12T10:17:00Z,-17.56248479,-149.7830339,1.0,70.57,1.04,1
203,MCR CORAL DOM,38,B,2016-08-12T10:39:00Z,-17.56786983,-149.7925031,1.0,68.14,1.85,1
205,MCR CORAL DOM,42,B,2016-08-12T10:52:00Z,-17.56927254,-149.7896573,1.0,72.76,0.26,1
207,MCR CORAL DOM,41,B,2016-08-12T11:10:00Z,-17.57019438,-149.7873946,1.0,71.7,2.37,4
209,MCR CORAL DOM,39,B,2016-08-12T11:20:00Z,-17.57239278,-149.7883265,1.0,70.42,0.0,1
210,MCR CORAL DOM,36,B,2016-08-12T11:39:00Z,-17.57943392,-149.7968348,1.0,65.56,0.05,1
212,MCR CORAL DOM,35,B,2016-08-12T12:02:00Z,-17.58383224,-149.7985487,1.0,66.74,0.13,1
214,MCR CORAL DOM,32,B,2016-08-12T12:54:00Z,-17.59291001,-149.7998923,1.0,70.28,0.9,1
216,MCR CORAL DOM,26,B,2016-08-12T13:13:00Z,-17.59146245,-149.8037116,1.0,71.19,1.92,4
220,MCR CORAL DOM,79,B,2016-08-12T13:55:00Z,-17.60410798,-149.8210349,1.0,70.98,0.49,1
222,MCR CORAL DOM,20,B,2016-08-12T14:20:00Z,-17.60238365,-149.8303391,1.0,67.51,0.0,1
223,MCR CORAL DOM,174,B,2016-08-15T09:57:00Z,-17.4725779,-149.7778578,1.0,68.78,1.06,1
225,MCR CORAL DOM,162,B,2016-08-15T10:23:00Z,-17.47599625,-149.780356,1.0,67.66,0.57,1
227,MCR CORAL DOM,167,B,2016-08-15T10:40:00Z,-17.47282634,-149.7810294,1.0,67.4,0.36,1
229,MCR CORAL DOM,163,B,2016-08-15T10:57:00Z,-17.47785238,-149.7866539,1.0,66.04,0.32,1
231,MCR CORAL DOM,171,B,2016-08-15T11:16:00Z,-17.47496934,-149.7901163,1.0,66.55,0.0,1
232,MCR CORAL DOM,165,B,2016-08-15T11:34:00Z,-17.4796057,-149.7961288,1.0,67.97,1.5,4
234,MCR CORAL DOM,172,B,2016-08-15T11:48:00Z,-17.4804404,-149.799661,1.0,62.05,0.22,1
236,MCR CORAL DOM,186,B,2016-08-15T12:01:00Z,-17.47711502,-149.8025034,1.0,64.23,0.63,1
240,MCR CORAL DOM,29,B,2016-08-24T09:45:00Z,-17.59742064,-149.8283843,1.0,70.18,0.09,1
242,MCR CORAL DOM,21,B,2016-08-24T10:00:00Z,-17.59344385,-149.826245,1.0,66.77,1.85,4
244,MCR CORAL DOM,17,B,2016-08-24T10:20:00Z,-17.59328585,-149.8390346,1.0,66.31,0.11,1
246,MCR CORAL DOM,18,B,2016-08-24T10:38:00Z,-17.59567268,-149.8408034,1.0,63.69,0.66,1
248,MCR CORAL DOM,19,B,2016-08-24T10:57:00Z,-17.59828926,-149.8398006,1.0,67.9,0.0,1
249,MCR CORAL DOM,16,B,2016-08-24T11:11:00Z,-17.5869498,-149.8426075,1.0,60.12,0.42,1
251,MCR CORAL DOM,12,B,2016-08-24T11:25:00Z,-17.59364896,-149.8482386,1.0,66.4,0.44,1
253,MCR CORAL DOM,1,B,2016-08-24T11:45:00Z,-17.58796058,-149.850116,1.0,69.28,4.43,1
255,MCR CORAL DOM,47,B,2016-08-24T12:04:00Z,-17.59313297,-149.8546619,1.0,72.24,0.63,1
257,MCR CORAL DOM,15,B,2016-08-24T12:35:00Z,-17.58035241,-149.8535032,1.0,67.92,0.0,1
258,MCR CORAL DOM,160,B,2016-08-28T08:50:00Z,-17.48204526,-149.8262099,1.0,70.69,1.22,1
260,MCR CORAL DOM,159,B,2016-08-28T09:02:00Z,-17.48204526,-149.8262099,1.0,67.98,0.0,1
261,MCR CORAL DOM,158,B,2016-08-28T09:13:00Z,-17.48467013,-149.8275155,1.0,67.22,0.23,1
263,MCR CORAL DOM,157,B,2016-08-28T09:29:00Z,-17.48115082,-149.8301379,1.0,66.45,0.0,1
264,MCR CORAL DOM,156,B,2016-08-28T09:43:00Z,-17.48502921,-149.8312727,1.0,64.54,0.0,1
265,MCR CORAL DOM,155,B,2016-08-28T09:55:00Z,-17.48486702,-149.8347928,1.0,65.63,0.0,1
266,MCR CORAL DOM,154,B,2016-08-28T10:12:00Z,-17.4797321,-149.8365316,1.0,67.88,0.0,1
267,MCR CORAL DOM,150,B,2016-08-28T10:30:00Z,-17.4845372,-149.842468,1.0,68.01,1.56,4
269,MCR CORAL DOM,146,B,2016-08-28T10:53:00Z,-17.48560642,-149.846582,1.0,68.42,0.0,1
270,MCR CORAL DOM,145,B,2016-08-28T11:08:00Z,-17.48986008,-149.8497553,1.0,66.87,0.0,1
271,MCR CORAL DOM,143,B,2016-08-28T11:21:00Z,-17.49093646,-149.8545045,1.0,66.68,0.0,1
272,MCR CORAL DOM,142,B,2016-08-28T11:42:00Z,-17.49395062,-149.8521457,1.0,66.72,0.58,1
274,MCR CORAL DOM,178,B,2016-08-28T12:02:00Z,-17.48728956,-149.8183929,1.0,63.88,0.0,1
275,MCR CORAL DOM,89,B,2016-08-29T09:24:00Z,-17.55473723,-149.8855922,1.0,67.0,0.0,1
276,MCR CORAL DOM,85,B,2016-08-29T09:37:00Z,-17.56350797,-149.8812157,1.0,65.96,0.52,1
278,MCR CORAL DOM,80,B,2016-08-29T09:49:00Z,-17.56380737,-149.8743451,1.0,70.01,0.0,1
279,MCR CORAL DOM,88,B,2016-08-29T10:03:00Z,-17.56132901,-149.8766332,1.0,63.69,0.0,1
280,MCR CORAL DOM,13,B,2016-08-29T10:18:00Z,-17.5676907,-149.8705731,1.0,66.78,1.67,1
282,MCR CORAL DOM,11,B,2016-08-29T10:41:00Z,-17.5727299,-149.8661581,1.0,66.11,0.0,1
283,MCR CORAL DOM,10,B,2016-08-29T10:47:00Z,-17.5752091,-149.8700014,1.0,66.61,0.58,1
285,MCR CORAL DOM,49,B,2016-08-29T11:05:00Z,-17.57717782,-149.8610173,1.0,69.98,0.0,1
286,MCR CORAL DOM,7,B,2016-08-29T11:22:00Z,-17.57851023,-149.8622209,1.0,64.79,0.0,1
287,MCR CORAL DOM,14,B,2016-08-29T11:33:00Z,-17.58281082,-149.8662589,1.0,66.76,0.06,1
289,MCR CORAL DOM,4,B,2016-08-29T11:46:00Z,-17.58473849,-149.8584346,1.0,64.39,0.0,1
290,MCR CORAL DOM,8,B,2016-08-29T12:06:00Z,-17.58473849,-149.8584346,1.0,64.49,0.52,1
292,MCR CORAL DOM,24,B,2016-08-29T12:32:00Z,-17.58473849,-149.8584346,1.0,69.03,0.0,1
293,MCR CORAL DOM,117S,B,2016-08-29T11:44:00Z,-17.49064844,-149.9111011,1.0,68.81,0.5,1
295,MCR CORAL DOM,118S,B,2016-08-29T12:09:00Z,-17.48914783,-149.9067514,1.0,68.67,0.3,1
297,MCR CORAL DOM,119S,B,2016-08-29T12:25:00Z,-17.48591677,-149.9077934,1.0,69.54,0.0,1
298,MCR CORAL DOM,120S,B,2016-08-29T12:38:00Z,-17.48790848,-149.9022525,1.0,69.28,0.0,1
299,MCR CORAL DOM,121S,B,2016-08-29T12:53:00Z,-17.48853084,-149.8968575,1.0,72.59,0.36,1
301,MCR CORAL DOM,122S,B,2016-08-29T13:07:00Z,-17.48485495,-149.8962351,1.0,70.55,0.0,1
302,MCR CORAL DOM,123S,B,2016-08-29T13:20:00Z,-17.48485495,-149.8962351,1.0,70.19,2.11,4
304,MCR CORAL DOM,124S,B,2016-08-29T13:38:00Z,-17.48469737,-149.8922813,1.0,67.27,0.0,1
305,MCR CORAL DOM,125S,B,2016-08-29T14:10:00Z,-17.49032135,-149.8827408,1.0,79.23,0.46,1
307,MCR CORAL DOM,133S,B,2016-08-29T14:36:00Z,-17.49028584,-149.8868992,1.0,79.02,2.96,1
309,MCR CORAL DOM,134S,B,2016-08-29T14:53:00Z,-17.48732954,-149.8870074,1.0,68.28,1.24,4
311,MCR CORAL DOM,135S,B,2016-08-29T15:12:00Z,-17.48732954,-149.8870074,1.0,66.8,0.0,1
312,MCR CORAL DOM,136,B,2016-09-01T09:01:00Z,-17.48690316,-149.8805744,1.0,66.97,0.0,1
313,MCR CORAL DOM,128,B,2016-09-01T09:18:00Z,-17.48683493,-149.8765044,1.0,67.86,1.26,4
315,MCR CORAL DOM,127,B,2016-09-01T09:41:00Z,-17.4889724,-149.8789846,1.0,70.04,0.0,1
316,MCR CORAL DOM,126,B,2016-09-01T09:54:00Z,-17.49179923,-149.8794897,1.0,69.39,0.11,1
318,MCR CORAL DOM,129,B,2016-09-01T10:17:00Z,-17.48972761,-149.8726504,1.0,67.1,0.79,1
320,MCR CORAL DOM,138,B,2016-09-01T10:29:00Z,-17.49209605,-149.8746473,1.0,71.32,0.0,1
